Muskegon, MI

9:34 PM EST on December 15, 2019 (GMT -0500)
Muskegon County

Weather History for KMKG - November, 2019

Change the Weather History Date:

Friday, November 15, 2019

  Actual Average Record
Temperature  
Mean Temperature 34 °F 40 °F  
Max Temperature 40 °F 47 °F 65 °F (1930)
Min Temperature 28 °F 34 °F 10 °F (1959)
Degree Days  
Heating Degree Days 31 25  
Month to date heating degree days 455 331  
Since 1 July heating degree days 961 954  
Cooling Degree Days 0 0  
Month to date cooling degree days 0 0  
Year to date cooling degree days 640 566  
Moisture  
Dew Point 25 °F    
Average Humidity 65    
Maximum Humidity 75    
Minimum Humidity 54    
Precipitation  
Precipitation 0.00 in 0.12 in 1.59 in (1927)
Month to date precipitation 1.48 1.72  
Year to date precipitation 42.30 29.30  
Snow  
Snow 0.00 in 0.10 in 3.00 in (1969)
Month to date snowfall 10.9 1.5  
Since 1 July snowfall 10.9 1.7  
Since 1 September snowfall 10.9 1.7  
Snow Depth 2.00 in    
Sea Level Pressure  
Sea Level Pressure 30.33 in    
Wind  
Wind Speed 9 mph (NW)    
Max Wind Speed 18 mph    
Max Gust Speed 28 mph    
Visibility 10 miles    
Events      
T = Trace of Precipitation, MM = Missing Value Source: NWS Daily Summary

Daily Weather History Graph

Daily Weather History Graph

Search for Another Location

Airport or City:

Astronomy

Nov. 15, 2019 Rise Set
Actual Time 7:37 AM EST 5:21 PM EST
Civil Twilight 7:06 AM EST 5:51 PM EST
Nautical Twilight 6:32 AM EST 6:26 PM EST
Astronomical Twilight 5:58 AM EST 6:59 PM EST
Moon 7:53 PM EST (11/15) 10:36 AM EST (11/15)
Length of Visible Light 10h 44m
Length of Day
9h 43m
Waning Gibbous, 90% of the Moon is Illuminated
Nov 15
Waning Gibbous
Nov 19
Last Quarter
Nov 26
New
Dec 4
First Quarter
Dec 12
Full

Hourly Weather History & Observations

Time (EST) Temp. Windchill Dew Point Humidity Pressure Visibility Wind Dir Wind Speed Gust Speed Precip Events Conditions
12:55 AM 33.1 °F 23.4 °F 24.1 °F 70% 30.26 in 10.0 mi WSW 13.8 mph - N/A   Overcast
1:55 AM 33.1 °F 23.4 °F 25.0 °F 72% 30.26 in 10.0 mi WSW 13.8 mph 25.3 mph N/A   Overcast
2:55 AM 34.0 °F 25.0 °F 25.0 °F 70% 30.25 in 10.0 mi West 12.7 mph - N/A   Scattered Clouds
3:55 AM 34.0 °F 26.6 °F 25.0 °F 70% 30.25 in 10.0 mi West 9.2 mph - N/A   Scattered Clouds
4:42 AM 36.0 °F 27.5 °F 27.0 °F 70% 30.23 in 10.0 mi West 12.7 mph - N/A   Overcast
4:55 AM 36.0 °F 27.5 °F 27.0 °F 70% 30.25 in 10.0 mi West 12.7 mph - N/A   Overcast
5:55 AM 36.0 °F 29.0 °F 27.0 °F 70% 30.26 in 10.0 mi WNW 9.2 mph - N/A   Overcast
6:55 AM 36.0 °F 30.3 °F 28.0 °F 73% 30.25 in 10.0 mi WNW 6.9 mph - N/A   Overcast
7:55 AM 37.0 °F 29.3 °F 28.0 °F 70% 30.27 in 10.0 mi WNW 11.5 mph - N/A   Overcast
8:55 AM 37.0 °F 28.5 °F 27.0 °F 67% 30.29 in 10.0 mi WNW 13.8 mph 19.6 mph N/A   Overcast
9:55 AM 37.0 °F 30.4 °F 27.0 °F 67% 30.30 in 10.0 mi NW 9.2 mph - N/A   Overcast
10:55 AM 37.0 °F 30.4 °F 26.1 °F 65% 30.33 in 10.0 mi WNW 9.2 mph - N/A   Overcast
11:55 AM 37.0 °F 31.0 °F 27.0 °F 67% 30.34 in 10.0 mi WNW 8.1 mph - N/A   Overcast
12:55 PM 37.9 °F 30.5 °F 26.1 °F 62% 30.34 in 10.0 mi NW 11.5 mph - N/A   Mostly Cloudy
1:46 PM 39.0 °F 33.4 °F 27.0 °F 62% 30.31 in 10.0 mi WNW 8.1 mph - N/A   Scattered Clouds
1:55 PM 39.0 °F 31.8 °F 26.1 °F 60% 30.34 in 10.0 mi WNW 11.5 mph - N/A   Scattered Clouds
2:55 PM 39.0 °F 33.4 °F 27.0 °F 62% 30.34 in 10.0 mi NW 8.1 mph - N/A   Partly Cloudy
3:55 PM 39.0 °F 32.3 °F 25.0 °F 57% 30.36 in 10.0 mi NW 10.4 mph - N/A   Partly Cloudy
4:55 PM 37.0 °F 30.4 °F 25.0 °F 62% 30.37 in 10.0 mi NNW 9.2 mph - N/A   Mostly Cloudy
5:55 PM 35.1 °F 29.3 °F 25.0 °F 67% 30.39 in 10.0 mi NNW 6.9 mph - N/A   Mostly Cloudy
6:55 PM 34.0 °F 31.0 °F 24.1 °F 67% 30.41 in 10.0 mi NNW 3.5 mph - N/A   Mostly Cloudy
7:55 PM 33.1 °F 26.9 °F 23.0 °F 66% 30.43 in 10.0 mi North 6.9 mph - N/A   Scattered Clouds
8:55 PM 32.0 °F 25.6 °F 21.9 °F 66% 30.44 in 10.0 mi North 6.9 mph - N/A   Scattered Clouds
9:55 PM 30.9 °F 27.5 °F 21.9 °F 69% 30.46 in 10.0 mi NE 3.5 mph - N/A   Clear
10:55 PM 30.0 °F 26.5 °F 21.0 °F 69% 30.47 in 10.0 mi North 3.5 mph - N/A   Clear